sat.trackr.live / text

‹ back to catalog

YAOGAN-40 03C

NORAD 65546 · 2025-199C

PAYLOAD ACTIVE UNKNOWN

§ Identity

Operator
Country
PRC
Launch date
2025-09-06
Launch site
TAISC
Launch vehicle
Mass (kg)
RCS (m²)

External: N2YO · Heavens-Above · Gunter

§ Orbital elements

Epoch: 2026-05-25T05:29:21.402816Z

Period
101.95 min
Inclination
85.9923°
Eccentricity
0.0001979
Mean motion
14.12445287 rev/d
Perigee alt
849.6 km
Apogee alt
852.4 km
Semi-major
7,229.2 km
B*
7.4826e-5
RAAN
54.3922°
Arg perigee
93.4211°
Mean anomaly
266.7198°
Rev number
3,682

§ Raw data

YAOGAN-40 03C1 65546U 25199C   26145.22871994  .00000157  00000+0  74826-4 0  99952 65546  85.9923  54.3922 0001979  93.4211 266.7198 14.12445287 36821

JSON: /api/v1/satellites/65546 · /tle

For live sub-satellite position, see the globe view (requires WebGL).

§ Visibility from observer

Set your observer location to see the next 7 days of passes ≥ 10°. The values pass through the URL so the page stays shareable.

No JS? Fill the form by hand. The geolocation button needs JavaScript.